SL-14 DEB, 45270

Orbit data source: Space-Track

SL-14 DEB, 45270 is space debris in LEO originally from a launch on Thu, 15 Aug 1991 UTC launched from the Plesetsk Missile And Space Complex (PKMTR). Debris objects in space refer to the collection of defunct objects orbiting the Earth. Examples of debris include non-operational satellites, rocket bodies, and fragments generated from explosions, collisions, or faulty payload assembly.

Loading next visibility...
Identifier
45270, 1991-056G
Orbit
LEO
Country
Flag of CISCIS
Related business
Manufacturer
Unknown
Mission
Spacecraft
Bus & Motor
Unknown
Mass
Unknown
Launch date (UTC)
1991-08-15 (34 years ago)
Launch vehicle
Unknown
Launch site
Plesetsk Missile And Space Complex (PKMTR)
Object type
Payload
Rocket body
Debris
Shape & HBR
Unknown shape, 0.1 m
Radar Cross Section
Small (<0.1 m²)

Expand to show TLE details & history
Last TLE update: 11 hours ago

TLE from 11 hours ago
0 SL-14 DEB
1 45270U 91056G   26037.98660276  .00000248  00000-0  56375-3 0  9994
2 45270  82.5649 220.2620 0032206  11.3360 348.8483 13.22399715288845
Epoch: 2026-02-06T23:40Z
TLE epoch observation values (Epoch: 2026-02-06T23:40:42.478Z)
Latitude
-0.00008°
Longitude
87.96839°
Altitude
1,154.514 km
Speed
7.287 km/s
True Right ascension
14h 41m 02s
True Declination
0° 00' 00"
Sunlit
Object was in daylight at epoch
Visualization orbit readout
Latitude
Unknown
Longitude
Unknown
Altitude
Unknown
Speed
Unknown
Apparent Right ascension
Unknown
Apparent Declination
Unknown
Sunlit
N/A
Visualization observer readout
Local Sidereal Time
13:15:55
Azimuth
Unknown
Elevation
Unknown
Doppler factor
Unknown
Orbital elements
Apogee altitude
1,197.123 km
Perigee altitude
1,148.486 km
Semi-major axis
7,550.941 km
Eccentricity
0.00322
Inclination
82.5649°
RAAN
220.262°
Arg. of periapsis
11.336°
True anomaly
348.77664°
Mean anomaly
348.8483°
Eccentric anomaly
348.8125°
Mean motion
3.30782 °/min
Orbital period
108.83 mins
BSTAR
0.00056375
Loading maneuver chart data...
Computing Atmospheric mass density...
Loading historical data...
Loading historical data...
Loading historical data...
Loading historical data...
Loading historical data...
Loading historical data...
Loading historical data...

Documentation

Showing up to 5 results
|